When you browse on this site, cookies collect data to enhance your experience and personalize the content and advertising you see.
Visit our Privacy Policy to learn more. By continuing to use the site, you agree to this use of cookies and data.
  • en Suisse
  • Liste des pays
  • À 7 jours
  • Température de l'eau
  • Carte satellitaire
  • Carte météo
  • Widgets météo
  • user-avatar
    Se connecter

    Météo par heure à Gostyzh

    Ce jour, 20 Juin, Jeudi

    Heure Température Précipitation Vent Pression Humidité
    00:00 +18°C° 0 mm 1 m/s 745 mmHg 79%
    01:00 +16°C° 0 mm 1 m/s 746 mmHg 80%
    02:00 +16°C° 0 mm 1 m/s 746 mmHg 82%
    03:00 +18°C° 0 mm 1 m/s 746 mmHg 82%
    04:00 +18°C° 0 mm 1 m/s 746 mmHg 81%
    05:00 +19°C° 0 mm 1 m/s 746 mmHg 81%
    06:00 +19°C° 0 mm 0 m/s 746 mmHg 76%
    07:00 +20°C° 0 mm 0 m/s 746 mmHg 71%
    08:00 +22°C° 0 mm 0 m/s 746 mmHg 66%
    09:00 +23°C° 0 mm 0 m/s 746 mmHg 61%
    10:00 +24°C° 0 mm 0 m/s 746 mmHg 56%
    11:00 +25°C° 0 mm 0 m/s 746 mmHg 51%
    12:00 +28°C° 0 mm 1 m/s 746 mmHg 50%
    13:00 +28°C° 0 mm 1 m/s 746 mmHg 48%
    14:00 +28°C° 0 mm 1 m/s 746 mmHg 47%
    15:00 +28°C° 0 mm 1 m/s 746 mmHg 52%
    16:00 +28°C° 0 mm 1 m/s 746 mmHg 57%
    17:00 +27°C° 0 mm 1 m/s 745 mmHg 62%
    18:00 +25°C° 0 mm 1 m/s 745 mmHg 66%
    19:00 +23°C° 0 mm 1 m/s 746 mmHg 69%
    20:00 +22°C° 0 mm 1 m/s 746 mmHg 73%
    21:00 +21°C° 0 mm 1 m/s 746 mmHg 74%
    22:00 +20°C° 0 mm 1 m/s 746 mmHg 75%
    23:00 +19°C° 0 mm 1 m/s 746 mmHg 77%

    Demain, 21 Juin, Vendredi

    Heure Température Précipitation Vent Pression Humidité
    00:00 +19°C° 0 mm 1 m/s 746 mmHg 78%
    01:00 +19°C° 0 mm 1 m/s 746 mmHg 80%
    02:00 +18°C° 0 mm 1 m/s 747 mmHg 82%
    03:00 +19°C° 0 mm 1 m/s 747 mmHg 83%
    04:00 +19°C° 0 mm 1 m/s 747 mmHg 83%
    05:00 +20°C° 0 mm 1 m/s 747 mmHg 84%
    06:00 +20°C° 0 mm 2 m/s 747 mmHg 80%
    07:00 +23°C° 0 mm 2 m/s 747 mmHg 75%
    08:00 +25°C° 0 mm 2 m/s 747 mmHg 70%
    09:00 +25°C° 0 mm 3 m/s 747 mmHg 66%
    10:00 +26°C° 0 mm 3 m/s 747 mmHg 62%
    11:00 +27°C° 0 mm 3 m/s 747 mmHg 58%
    12:00 +28°C° 0 mm 3 m/s 747 mmHg 58%
    13:00 +28°C° 0 mm 3 m/s 746 mmHg 58%
    14:00 +28°C° 0 mm 3 m/s 746 mmHg 58%
    15:00 +28°C° 0.1 mm 3 m/s 746 mmHg 62%
    16:00 +27°C° 0.1 mm 3 m/s 746 mmHg 67%
    17:00 +27°C° 0.1 mm 3 m/s 746 mmHg 72%
    18:00 +25°C° 0.1 mm 3 m/s 746 mmHg 76%
    19:00 +24°C° 0.1 mm 3 m/s 746 mmHg 79%
    20:00 +21°C° 0.1 mm 2 m/s 746 mmHg 83%
    21:00 +21°C° 0 mm 3 m/s 746 mmHg 85%
    22:00 +20°C° 0 mm 3 m/s 746 mmHg 86%
    23:00 +19°C° 0 mm 3 m/s 746 mmHg 88%

    Après-demain, 22 Juin, Samedi

    Heure Température Précipitation Vent Pression Humidité
    00:00 +19°C° 0 mm 3 m/s 746 mmHg 89%
    01:00 +19°C° 0 mm 3 m/s 746 mmHg 90%
    02:00 +18°C° 0 mm 3 m/s 746 mmHg 91%
    03:00 +19°C° 0 mm 3 m/s 746 mmHg 90%
    04:00 +19°C° 0 mm 3 m/s 746 mmHg 90%
    05:00 +19°C° 0 mm 3 m/s 746 mmHg 89%
    06:00 +21°C° 0 mm 3 m/s 746 mmHg 85%
    07:00 +23°C° 0 mm 4 m/s 747 mmHg 81%
    08:00 +25°C° 0 mm 4 m/s 747 mmHg 76%
    09:00 +26°C° 0.1 mm 4 m/s 747 mmHg 72%
    10:00 +27°C° 0.1 mm 5 m/s 747 mmHg 67%
    11:00 +28°C° 0.1 mm 5 m/s 746 mmHg 63%
    12:00 +29°C° 0 mm 5 m/s 746 mmHg 62%
    13:00 +29°C° 0 mm 5 m/s 746 mmHg 61%
    14:00 +29°C° 0 mm 5 m/s 746 mmHg 60%
    15:00 +29°C° 0 mm 4 m/s 746 mmHg 64%
    16:00 +28°C° 0 mm 4 m/s 746 mmHg 67%
    17:00 +28°C° 0 mm 4 m/s 745 mmHg 71%
    18:00 +26°C° 0 mm 3 m/s 746 mmHg 76%
    19:00 +25°C° 0 mm 3 m/s 746 mmHg 80%
    20:00 +22°C° 0 mm 3 m/s 746 mmHg 85%
    21:00 +21°C° 0 mm 3 m/s 746 mmHg 86%
    22:00 +21°C° 0 mm 3 m/s 746 mmHg 88%
    23:00 +20°C° 0 mm 3 m/s 746 mmHg 89%

    23 Juin, Dimanche

    Heure Température Précipitation Vent Pression Humidité
    00:00 +19°C° 0 mm 2 m/s 746 mmHg 90%
    01:00 +19°C° 0 mm 2 m/s 746 mmHg 91%
    02:00 +19°C° 0 mm 2 m/s 746 mmHg 92%
    03:00 +19°C° 0 mm 2 m/s 746 mmHg 91%
    04:00 +20°C° 0 mm 2 m/s 746 mmHg 90%
    05:00 +20°C° 0 mm 2 m/s 746 mmHg 89%
    06:00 +23°C° 0.1 mm 2 m/s 747 mmHg 85%
    07:00 +24°C° 0.1 mm 2 m/s 747 mmHg 81%
    08:00 +26°C° 0.1 mm 2 m/s 747 mmHg 76%
    09:00 +26°C° 0.8 mm 2 m/s 747 mmHg 73%
    10:00 +27°C° 0.8 mm 3 m/s 747 mmHg 70%
    11:00 +28°C° 0.8 mm 3 m/s 747 mmHg 67%
    12:00 +28°C° 0.6 mm 3 m/s 747 mmHg 66%
    13:00 +28°C° 0.6 mm 3 m/s 747 mmHg 66%
    14:00 +28°C° 0.6 mm 3 m/s 747 mmHg 65%
    15:00 +27°C° 1 mm 3 m/s 747 mmHg 71%
    16:00 +26°C° 1 mm 3 m/s 747 mmHg 76%
    17:00 +25°C° 1 mm 3 m/s 747 mmHg 82%
    18:00 +24°C° 0.2 mm 3 m/s 747 mmHg 84%
    19:00 +21°C° 0.2 mm 3 m/s 747 mmHg 87%
    20:00 +20°C° 0.2 mm 3 m/s 748 mmHg 89%
    21:00 +19°C° 0 mm 3 m/s 748 mmHg 89%
    22:00 +18°C° 0 mm 3 m/s 748 mmHg 88%
    23:00 +17°C° 0 mm 3 m/s 748 mmHg 87%

    24 Juin, Lundi

    Heure Température Précipitation Vent Pression Humidité
    00:00 +17°C° 0 mm 3 m/s 748 mmHg 86%
    01:00 +16°C° 0 mm 3 m/s 748 mmHg 85%
    02:00 +16°C° 0 mm 3 m/s 749 mmHg 84%
    03:00 +16°C° 0 mm 3 m/s 749 mmHg 83%
    04:00 +16°C° 0 mm 3 m/s 749 mmHg 82%
    05:00 +16°C° 0 mm 3 m/s 749 mmHg 82%
    06:00 +17°C° 0 mm 4 m/s 749 mmHg 78%
    07:00 +18°C° 0 mm 4 m/s 750 mmHg 74%
    08:00 +19°C° 0 mm 5 m/s 750 mmHg 70%
    09:00 +20°C° 0 mm 5 m/s 750 mmHg 66%
    10:00 +21°C° 0 mm 5 m/s 750 mmHg 63%
    11:00 +22°C° 0 mm 5 m/s 750 mmHg 59%
    12:00 +22°C° 0 mm 5 m/s 750 mmHg 59%
    13:00 +23°C° 0 mm 5 m/s 750 mmHg 59%
    14:00 +23°C° 0 mm 5 m/s 750 mmHg 58%
    15:00 +23°C° 0 mm 5 m/s 750 mmHg 61%
    16:00 +22°C° 0 mm 4 m/s 750 mmHg 64%
    17:00 +22°C° 0 mm 4 m/s 750 mmHg 66%
    18:00 +20°C° 0 mm 3 m/s 750 mmHg 71%
    19:00 +19°C° 0 mm 3 m/s 750 mmHg 75%
    20:00 +17°C° 0 mm 2 m/s 750 mmHg 79%
    21:00 +16°C° 0 mm 2 m/s 750 mmHg 76%
    22:00 +16°C° 0 mm 2 m/s 750 mmHg 73%
    23:00 +15°C° 0 mm 2 m/s 751 mmHg 70%

    25 Juin, Mardi

    Heure Température Précipitation Vent Pression Humidité
    00:00 +15°C° 0 mm 2 m/s 751 mmHg 73%
    01:00 +14°C° 0 mm 2 m/s 751 mmHg 76%
    02:00 +14°C° 0 mm 2 m/s 751 mmHg 78%
    03:00 +14°C° 0 mm 2 m/s 751 mmHg 79%
    04:00 +15°C° 0 mm 2 m/s 751 mmHg 80%
    05:00 +14°C° 0 mm 3 m/s 751 mmHg 80%
    06:00 +17°C° 0 mm 3 m/s 751 mmHg 76%
    07:00 +18°C° 0 mm 3 m/s 751 mmHg 72%
    08:00 +20°C° 0 mm 3 m/s 751 mmHg 67%
    09:00 +21°C° 0 mm 2 m/s 751 mmHg 62%
    10:00 +23°C° 0 mm 2 m/s 751 mmHg 58%
    11:00 +23°C° 0 mm 2 m/s 751 mmHg 53%
    12:00 +24°C° 0 mm 2 m/s 751 mmHg 53%
    13:00 +24°C° 0 mm 2 m/s 750 mmHg 53%
    14:00 +24°C° 0 mm 2 m/s 750 mmHg 53%
    15:00 +23°C° 0 mm 2 m/s 750 mmHg 55%
    16:00 +23°C° 0 mm 2 m/s 750 mmHg 57%
    17:00 +23°C° 0 mm 1 m/s 749 mmHg 59%
    18:00 +21°C° 0 mm 1 m/s 749 mmHg 64%
    19:00 +20°C° 0 mm 1 m/s 749 mmHg 69%
    20:00 +18°C° 0 mm 1 m/s 749 mmHg 75%
    21:00 +16°C° 0 mm 1 m/s 749 mmHg 77%
    22:00 +14°C° 0 mm 0 m/s 749 mmHg 80%
    23:00 +13°C° 0 mm 0 m/s 749 mmHg 82%
    Voir plus